Retour au catalogue

STARLINK-34052

ActifCommunicationsVLEO
NORAD 63874·PAYLOAD·🇺🇸 United States

Lancé May 10, 2025 depuis Vandenberg Space Force Base

Loading…

Prochains Passages (prochaines 24 heures)

TLE

FraisSource: CelesTrak SupGP

Époque: Sep 15, 2026, 02:38 UTC

1 63874C 25094L   26258.11020833  .00003559  00000+0  12366-3 0  2589
2 63874  69.9986 115.0221 0003122 273.7694  56.2015 15.29610821    10

Suivez STARLINK-34052 en temps réel avec AllMySat

Download on the App Store